Time,TemperatureF,DewpointF,PressureIn,WindDirection,WindDirectionDegrees,WindSpeedMPH,WindSpeedGustMPH,Humidity,HourlyPrecipIn,Conditions,Clouds,dailyrainin,SoftwareType,DateUTC
2013-03-11 00:00:00,35.8,29.9,30.29,SSW,206,6.0,6.0,79,0.00,,,0.08,Wunderground v.1.15,2013-03-11 04:00:00,
2013-03-11 00:01:00,35.8,29.9,30.29,South,184,4.0,6.0,79,0.00,,,0.00,Wunderground v.1.15,2013-03-11 04:01:00,
2013-03-11 00:06:00,35.9,30.3,30.29,SSE,149,1.0,7.0,80,0.00,,,0.00,Wunderground v.1.15,2013-03-11 04:06:00,
2013-03-11 00:12:00,35.9,30.3,30.29,South,179,5.0,7.0,80,0.00,,,0.00,Wunderground v.1.15,2013-03-11 04:12:00,
2013-03-11 00:18:00,35.9,30.3,30.29,SSW,192,5.0,7.0,80,0.00,,,0.00,Wunderground v.1.15,2013-03-11 04:18:00,
2013-03-11 00:23:00,35.9,30.3,30.29,SSW,196,6.0,7.0,80,0.00,,,0.00,Wunderground v.1.15,2013-03-11 04:23:00,
2013-03-11 00:28:00,35.9,30.3,30.28,SSW,194,3.0,7.0,80,0.00,,,0.00,Wunderground v.1.15,2013-03-11 04:28:00,
2013-03-11 00:33:00,35.9,30.3,30.28,SSE,150,5.0,5.0,80,0.00,,,0.00,Wunderground v.1.15,2013-03-11 04:33:00,
2013-03-11 00:38:00,35.9,30.3,30.29,South,187,3.0,5.0,80,0.00,,,0.00,Wunderground v.1.15,2013-03-11 04:38:00,
2013-03-11 00:44:00,35.9,30.3,30.29,SW,216,4.0,5.0,80,0.00,,,0.00,Wunderground v.1.15,2013-03-11 04:44:00,
2013-03-11 00:49:00,35.9,30.3,30.29,SW,221,3.0,6.0,80,0.00,,,0.00,Wunderground v.1.15,2013-03-11 04:49:00,
2013-03-11 00:55:00,35.8,30.2,30.29,South,184,2.0,5.0,80,0.00,,,0.00,Wunderground v.1.15,2013-03-11 04:55:00,
2013-03-11 01:00:00,35.8,30.2,30.29,SSW,199,6.0,6.0,80,0.00,,,0.00,Wunderground v.1.15,2013-03-11 05:00:00,
2013-03-11 01:05:00,35.8,30.2,30.28,South,188,5.0,7.0,80,0.00,,,0.00,Wunderground v.1.15,2013-03-11 05:05:00,
2013-03-11 01:11:00,35.9,30.3,30.28,SSW,196,2.0,4.0,80,0.00,,,0.00,Wunderground v.1.15,2013-03-11 05:11:00,
2013-03-11 01:17:00,35.9,30.6,30.28,South,188,5.0,7.0,81,0.00,,,0.00,Wunderground v.1.15,2013-03-11 05:17:00,
2013-03-11 01:22:00,35.9,30.3,30.28,SSW,206,4.0,5.0,80,0.00,,,0.00,Wunderground v.1.15,2013-03-11 05:22:00,
2013-03-11 01:28:00,35.9,30.6,30.28,SW,223,2.0,5.0,81,0.00,,,0.00,Wunderground v.1.15,2013-03-11 05:28:00,
2013-03-11 01:33:00,35.8,30.2,30.29,SW,236,2.0,4.0,80,0.00,,,0.00,Wunderground v.1.15,2013-03-11 05:33:00,
2013-03-11 01:38:00,35.7,30.1,30.29,South,180,10.0,10.0,80,0.00,,,0.00,Wunderground v.1.15,2013-03-11 05:38:00,
2013-03-11 01:43:00,35.8,30.5,30.30,SW,227,4.0,8.0,81,0.00,,,0.00,Wunderground v.1.15,2013-03-11 05:43:00,
2013-03-11 01:49:00,35.7,30.4,30.30,SW,222,6.0,8.0,81,0.00,,,0.00,Wunderground v.1.15,2013-03-11 05:49:00,
2013-03-11 01:54:00,35.7,30.4,30.30,SW,219,3.0,8.0,81,0.00,,,0.00,Wunderground v.1.15,2013-03-11 05:54:00,
2013-03-11 01:59:00,35.7,30.4,30.30,West,267,1.0,8.0,81,0.00,,,0.00,Wunderground v.1.15,2013-03-11 05:59:00,
2013-03-11 02:04:00,35.7,30.4,30.30,West,275,3.0,4.0,81,0.00,,,0.00,Wunderground v.1.15,2013-03-11 06:04:00,
2013-03-11 02:09:00,35.7,30.4,30.30,WSW,249,4.0,5.0,81,0.00,,,0.00,Wunderground v.1.15,2013-03-11 06:09:00,
2013-03-11 02:14:00,35.7,30.4,30.30,WSW,254,0.0,4.0,81,0.00,,,0.00,Wunderground v.1.15,2013-03-11 06:14:00,
2013-03-11 02:19:00,35.7,30.4,30.29,WSW,244,1.0,7.0,81,0.00,,,0.00,Wunderground v.1.15,2013-03-11 06:19:00,
2013-03-11 02:24:00,35.7,30.4,30.29,South,190,4.0,8.0,81,0.00,,,0.00,Wunderground v.1.15,2013-03-11 06:24:00,
2013-03-11 02:29:00,35.7,30.4,30.29,WSW,254,6.0,14.0,81,0.00,,,0.00,Wunderground v.1.15,2013-03-11 06:29:00,
2013-03-11 02:34:00,35.8,30.5,30.29,SSW,193,4.0,7.0,81,0.00,,,0.00,Wunderground v.1.15,2013-03-11 06:34:00,
2013-03-11 02:39:00,35.8,30.5,30.29,SW,225,6.0,7.0,81,0.00,,,0.00,Wunderground v.1.15,2013-03-11 06:39:00,
2013-03-11 02:44:00,35.8,30.5,30.29,SSW,206,2.0,6.0,81,0.00,,,0.00,Wunderground v.1.15,2013-03-11 06:44:00,
2013-03-11 02:49:00,35.8,30.5,30.29,SW,227,3.0,7.0,81,0.00,,,0.00,Wunderground v.1.15,2013-03-11 06:49:00,
2013-03-11 02:54:00,35.8,30.5,30.29,SW,216,4.0,7.0,81,0.00,,,0.00,Wunderground v.1.15,2013-03-11 06:54:00,
2013-03-11 02:59:00,35.7,30.4,30.29,SW,233,2.0,7.0,81,0.00,,,0.00,Wunderground v.1.15,2013-03-11 06:59:00,
2013-03-11 03:04:00,35.7,30.4,30.27,SW,234,4.0,11.0,81,0.00,,,0.00,Wunderground v.1.15,2013-03-11 07:04:00,
2013-03-11 03:09:00,35.7,30.4,30.27,SW,219,2.0,11.0,81,0.00,,,0.00,Wunderground v.1.15,2013-03-11 07:09:00,
2013-03-11 03:14:00,35.7,30.4,30.27,SW,234,4.0,6.0,81,0.00,,,0.00,Wunderground v.1.15,2013-03-11 07:14:00,
2013-03-11 03:19:00,35.7,30.4,30.26,SW,222,0.0,6.0,81,0.00,,,0.00,Wunderground v.1.15,2013-03-11 07:19:00,
2013-03-11 03:24:00,35.7,30.4,30.25,SW,214,6.0,10.0,81,0.00,,,0.00,Wunderground v.1.15,2013-03-11 07:24:00,
2013-03-11 03:29:00,35.6,30.3,30.25,SW,219,3.0,10.0,81,0.00,,,0.00,Wunderground v.1.15,2013-03-11 07:29:00,
2013-03-11 03:34:00,35.6,30.3,30.24,SSW,193,5.0,7.0,81,0.00,,,0.00,Wunderground v.1.15,2013-03-11 07:34:00,
2013-03-11 03:39:00,35.6,30.3,30.24,South,182,2.0,7.0,81,0.00,,,0.00,Wunderground v.1.15,2013-03-11 07:39:00,
2013-03-11 03:44:00,35.6,30.3,30.23,SSE,167,5.0,9.0,81,0.00,,,0.00,Wunderground v.1.15,2013-03-11 07:44:00,
2013-03-11 03:49:00,35.5,30.2,30.23,SSW,196,8.0,10.0,81,0.00,,,0.00,Wunderground v.1.15,2013-03-11 07:49:00,
2013-03-11 03:54:00,35.5,30.2,30.24,WSW,244,5.0,9.0,81,0.00,,,0.00,Wunderground v.1.15,2013-03-11 07:54:00,
2013-03-11 03:59:00,35.4,30.1,30.25,SSW,213,1.0,9.0,81,0.00,,,0.00,Wunderground v.1.15,2013-03-11 07:59:00,
2013-03-11 04:04:00,35.4,30.1,30.25,SW,236,2.0,5.0,81,0.00,,,0.00,Wunderground v.1.15,2013-03-11 08:04:00,
2013-03-11 04:09:00,35.3,30.1,30.25,SW,233,4.0,5.0,81,0.00,,,0.00,Wunderground v.1.15,2013-03-11 08:09:00,
2013-03-11 04:14:00,35.3,30.1,30.25,SSW,209,3.0,8.0,81,0.00,,,0.00,Wunderground v.1.15,2013-03-11 08:14:00,
2013-03-11 04:19:00,35.3,30.1,30.25,SW,222,4.0,9.0,81,0.00,,,0.00,Wunderground v.1.15,2013-03-11 08:19:00,
2013-03-11 04:24:00,35.3,30.1,30.25,WSW,242,2.0,8.0,81,0.00,,,0.00,Wunderground v.1.15,2013-03-11 08:24:00,
2013-03-11 04:29:00,35.3,30.1,30.25,SW,230,4.0,10.0,81,0.00,,,0.00,Wunderground v.1.15,2013-03-11 08:29:00,
2013-03-11 04:34:00,35.2,30.0,30.25,South,191,1.0,9.0,81,0.00,,,0.00,Wunderground v.1.15,2013-03-11 08:34:00,
2013-03-11 04:39:00,35.2,30.0,30.25,SW,226,3.0,9.0,81,0.00,,,0.00,Wunderground v.1.15,2013-03-11 08:39:00,
2013-03-11 04:44:00,35.3,30.1,30.24,SSW,192,0.0,5.0,81,0.00,,,0.00,Wunderground v.1.15,2013-03-11 08:44:00,
2013-03-11 04:49:00,35.3,30.1,30.25,SW,226,3.0,7.0,81,0.00,,,0.00,Wunderground v.1.15,2013-03-11 08:49:00,
2013-03-11 04:54:00,35.2,30.0,30.25,WSW,238,5.0,10.0,81,0.00,,,0.00,Wunderground v.1.15,2013-03-11 08:54:00,
2013-03-11 04:59:00,35.2,30.0,30.25,West,267,3.0,10.0,81,0.00,,,0.00,Wunderground v.1.15,2013-03-11 08:59:00,
2013-03-11 05:04:00,35.3,30.1,30.25,SSW,200,2.0,9.0,81,0.00,,,0.00,Wunderground v.1.15,2013-03-11 09:04:00,
2013-03-11 05:09:00,35.3,30.1,30.24,SW,225,4.0,9.0,81,0.00,,,0.00,Wunderground v.1.15,2013-03-11 09:09:00,
2013-03-11 05:14:00,35.2,30.0,30.24,SSW,211,0.0,6.0,81,0.00,,,0.00,Wunderground v.1.15,2013-03-11 09:14:00,
2013-03-11 05:19:00,35.2,30.0,30.24,SW,215,6.0,7.0,81,0.00,,,0.00,Wunderground v.1.15,2013-03-11 09:19:00,
2013-03-11 05:24:00,35.2,30.0,30.23,West,260,2.0,12.0,81,0.00,,,0.00,Wunderground v.1.15,2013-03-11 09:24:00,
2013-03-11 05:29:00,35.2,30.0,30.23,WSW,255,5.0,12.0,81,0.00,,,0.00,Wunderground v.1.15,2013-03-11 09:29:00,
2013-03-11 05:34:00,35.2,30.0,30.23,SSW,213,4.0,7.0,81,0.00,,,0.00,Wunderground v.1.15,2013-03-11 09:34:00,
2013-03-11 05:39:00,35.1,29.9,30.23,South,175,2.0,7.0,81,0.00,,,0.00,Wunderground v.1.15,2013-03-11 09:39:00,
2013-03-11 05:44:00,35.1,29.9,30.23,SSW,200,3.0,8.0,81,0.00,,,0.00,Wunderground v.1.15,2013-03-11 09:44:00,
2013-03-11 05:49:00,35.1,29.9,30.22,SW,217,5.0,11.0,81,0.00,,,0.00,Wunderground v.1.15,2013-03-11 09:49:00,
2013-03-11 05:54:00,35.2,30.0,30.22,SSW,195,3.0,9.0,81,0.00,,,0.00,Wunderground v.1.15,2013-03-11 09:54:00,
2013-03-11 05:59:00,35.2,30.0,30.23,SSW,197,4.0,9.0,81,0.00,,,0.00,Wunderground v.1.15,2013-03-11 09:59:00,
2013-03-11 06:04:00,35.1,29.9,30.23,SSW,194,3.0,7.0,81,0.00,,,0.00,Wunderground v.1.15,2013-03-11 10:04:00,
2013-03-11 06:09:00,35.1,29.9,30.22,SW,232,11.0,14.0,81,0.00,,,0.00,Wunderground v.1.15,2013-03-11 10:09:00,
2013-03-11 06:14:00,35.1,29.9,30.22,SSW,210,7.0,12.0,81,0.00,,,0.00,Wunderground v.1.15,2013-03-11 10:14:00,
2013-03-11 06:19:00,35.1,29.9,30.22,SW,215,5.0,12.0,81,0.00,,,0.00,Wunderground v.1.15,2013-03-11 10:19:00,
2013-03-11 06:24:00,35.1,29.9,30.23,SSW,203,1.0,5.0,81,0.00,,,0.00,Wunderground v.1.15,2013-03-11 10:24:00,
2013-03-11 06:29:00,35.1,29.9,30.23,WSW,249,2.0,7.0,81,0.00,,,0.00,Wunderground v.1.15,2013-03-11 10:29:00,
2013-03-11 06:34:00,35.1,30.2,30.24,SW,232,5.0,8.0,82,0.00,,,0.00,Wunderground v.1.15,2013-03-11 10:34:00,
2013-03-11 06:39:00,35.1,30.2,30.24,SW,217,3.0,8.0,82,0.00,,,0.00,Wunderground v.1.15,2013-03-11 10:39:00,
2013-03-11 06:44:00,35.1,30.2,30.24,West,271,3.0,6.0,82,0.00,,,0.00,Wunderground v.1.15,2013-03-11 10:44:00,
2013-03-11 06:49:00,35.1,30.2,30.24,SSW,203,3.0,9.0,82,0.00,,,0.00,Wunderground v.1.15,2013-03-11 10:49:00,
2013-03-11 06:54:00,35.1,30.2,30.24,SW,219,4.0,7.0,82,0.00,,,0.00,Wunderground v.1.15,2013-03-11 10:54:00,
2013-03-11 06:59:00,35.2,30.3,30.24,SW,232,4.0,7.0,82,0.00,,,0.00,Wunderground v.1.15,2013-03-11 10:59:00,
2013-03-11 07:04:00,35.2,30.3,30.25,WSW,254,4.0,8.0,82,0.00,,,0.00,Wunderground v.1.15,2013-03-11 11:04:00,
2013-03-11 07:09:00,35.2,30.3,30.24,SSW,213,7.0,10.0,82,0.00,,,0.00,Wunderground v.1.15,2013-03-11 11:09:00,
2013-03-11 07:14:00,35.3,30.4,30.24,WSW,242,1.0,8.0,82,0.00,,,0.00,Wunderground v.1.15,2013-03-11 11:14:00,
2013-03-11 07:20:00,35.3,30.4,30.24,South,182,4.0,4.0,82,0.00,,,0.00,Wunderground v.1.15,2013-03-11 11:20:00,
2013-03-11 07:25:00,35.3,30.1,30.23,South,188,3.0,7.0,81,0.00,,,0.00,Wunderground v.1.15,2013-03-11 11:25:00,
2013-03-11 07:30:00,35.4,30.1,30.24,SW,221,6.0,6.0,81,0.00,,,0.00,Wunderground v.1.15,2013-03-11 11:30:00,
2013-03-11 07:35:00,35.4,30.1,30.23,South,179,6.0,11.0,81,0.00,,,0.00,Wunderground v.1.15,2013-03-11 11:35:00,
2013-03-11 07:40:00,35.4,30.1,30.23,South,188,4.0,5.0,81,0.00,,,0.00,Wunderground v.1.15,2013-03-11 11:40:00,
2013-03-11 07:45:00,35.5,30.2,30.23,SW,219,3.0,10.0,81,0.00,,,0.00,Wunderground v.1.15,2013-03-11 11:45:00,
2013-03-11 07:50:00,35.5,30.2,30.23,South,184,7.0,7.0,81,0.00,,,0.00,Wunderground v.1.15,2013-03-11 11:50:00,
2013-03-11 07:55:00,35.6,30.3,30.23,SW,217,4.0,9.0,81,0.00,,,0.00,Wunderground v.1.15,2013-03-11 11:55:00,
2013-03-11 08:00:00,35.6,30.3,30.23,SW,215,8.0,8.0,81,0.00,,,0.00,Wunderground v.1.15,2013-03-11 12:00:00,
2013-03-11 08:05:00,35.7,30.4,30.23,SW,224,2.0,8.0,81,0.00,,,0.00,Wunderground v.1.15,2013-03-11 12:05:00,
2013-03-11 08:10:00,35.7,30.4,30.23,SSW,196,3.0,7.0,81,0.00,,,0.00,Wunderground v.1.15,2013-03-11 12:10:00,
2013-03-11 08:15:00,35.7,30.4,30.23,SSW,194,1.0,9.0,81,0.00,,,0.00,Wunderground v.1.15,2013-03-11 12:15:00,
2013-03-11 08:20:00,35.8,30.5,30.24,WSW,257,3.0,5.0,81,0.00,,,0.00,Wunderground v.1.15,2013-03-11 12:20:00,
2013-03-11 08:25:00,35.9,30.6,30.24,SW,230,1.0,9.0,81,0.00,,,0.00,Wunderground v.1.15,2013-03-11 12:25:00,
2013-03-11 08:30:00,36.0,30.7,30.23,WSW,244,6.0,7.0,81,0.00,,,0.00,Wunderground v.1.15,2013-03-11 12:30:00,
2013-03-11 08:35:00,36.2,30.9,30.23,SW,222,6.0,7.0,81,0.00,,,0.00,Wunderground v.1.15,2013-03-11 12:35:00,
2013-03-11 08:40:00,36.4,31.1,30.23,SSW,203,6.0,6.0,81,0.00,,,0.00,Wunderground v.1.15,2013-03-11 12:40:00,
2013-03-11 08:45:00,36.6,31.3,30.23,SW,219,1.0,8.0,81,0.00,,,0.00,Wunderground v.1.15,2013-03-11 12:45:00,
2013-03-11 08:50:00,36.8,31.2,30.23,WSW,255,1.0,4.0,80,0.00,,,0.00,Wunderground v.1.15,2013-03-11 12:50:00,
2013-03-11 08:55:00,36.9,31.3,30.23,SSW,204,2.0,6.0,80,0.00,,,0.00,Wunderground v.1.15,2013-03-11 12:55:00,
2013-03-11 09:00:00,37.0,31.4,30.23,SSW,206,2.0,3.0,80,0.00,,,0.00,Wunderground v.1.15,2013-03-11 13:00:00,
2013-03-11 09:05:00,37.2,31.6,30.23,SSW,209,8.0,8.0,80,0.00,,,0.00,Wunderground v.1.15,2013-03-11 13:05:00,
2013-03-11 09:10:00,37.4,31.8,30.22,SSW,196,5.0,6.0,80,0.00,,,0.00,Wunderground v.1.15,2013-03-11 13:10:00,
2013-03-11 09:15:00,37.7,32.1,30.23,WSW,254,6.0,6.0,80,0.00,,,0.00,Wunderground v.1.15,2013-03-11 13:15:00,
2013-03-11 09:20:00,37.9,32.0,30.23,SSW,206,7.0,7.0,79,0.00,,,0.00,Wunderground v.1.15,2013-03-11 13:20:00,
2013-03-11 09:25:00,38.2,32.3,30.23,SSW,203,3.0,9.0,79,0.00,,,0.00,Wunderground v.1.15,2013-03-11 13:25:00,
2013-03-11 09:30:00,38.4,32.5,30.23,SW,215,11.0,11.0,79,0.00,,,0.00,Wunderground v.1.15,2013-03-11 13:30:00,
2013-03-11 09:35:00,38.8,32.8,30.23,SSW,194,3.0,11.0,79,0.00,,,0.00,Wunderground v.1.15,2013-03-11 13:35:00,
2013-03-11 09:40:00,39.0,32.7,30.23,West,270,6.0,8.0,78,0.00,,,0.00,Wunderground v.1.15,2013-03-11 13:40:00,
2013-03-11 09:45:00,39.2,32.9,30.23,SW,217,6.0,8.0,78,0.00,,,0.00,Wunderground v.1.15,2013-03-11 13:45:00,
2013-03-11 09:50:00,39.4,33.1,30.22,SSW,198,2.0,6.0,78,0.00,,,0.00,Wunderground v.1.15,2013-03-11 13:50:00,
2013-03-11 09:55:00,39.7,33.1,30.23,SW,223,5.0,9.0,77,0.00,,,0.00,Wunderground v.1.15,2013-03-11 13:55:00,
2013-03-11 10:00:00,39.8,33.2,30.23,WSW,246,4.0,8.0,77,0.00,,,0.00,Wunderground v.1.15,2013-03-11 14:00:00,
2013-03-11 10:06:00,40.0,33.0,30.22,WSW,240,7.0,12.0,76,0.00,,,0.00,Wunderground v.1.15,2013-03-11 14:06:00,
2013-03-11 10:11:00,40.2,33.2,30.23,SW,227,7.0,9.0,76,0.00,,,0.00,Wunderground v.1.15,2013-03-11 14:11:00,
2013-03-11 10:16:00,40.5,33.5,30.23,SSW,211,3.0,10.0,76,0.00,,,0.00,Wunderground v.1.15,2013-03-11 14:16:00,
2013-03-11 10:21:00,40.9,33.9,30.23,SW,218,3.0,6.0,76,0.00,,,0.00,Wunderground v.1.15,2013-03-11 14:21:00,
2013-03-11 10:26:00,41.2,33.9,30.23,SW,224,7.0,7.0,75,0.00,,,0.00,Wunderground v.1.15,2013-03-11 14:26:00,
2013-03-11 10:32:00,41.8,34.5,30.23,SW,218,3.0,8.0,75,0.00,,,0.00,Wunderground v.1.15,2013-03-11 14:32:00,
2013-03-11 10:37:00,42.1,34.4,30.23,SSW,211,5.0,8.0,74,0.00,,,0.00,Wunderground v.1.15,2013-03-11 14:37:00,
2013-03-11 10:42:00,42.3,34.3,30.23,SW,232,2.0,5.0,73,0.00,,,0.00,Wunderground v.1.15,2013-03-11 14:42:00,
2013-03-11 10:47:00,42.4,34.4,30.23,WSW,240,6.0,10.0,73,0.00,,,0.00,Wunderground v.1.15,2013-03-11 14:47:00,
2013-03-11 10:52:00,42.8,34.4,30.22,WSW,240,2.0,6.0,72,0.00,,,0.00,Wunderground v.1.15,2013-03-11 14:52:00,
2013-03-11 10:57:00,43.1,34.7,30.22,SSW,201,3.0,10.0,72,0.00,,,0.00,Wunderground v.1.15,2013-03-11 14:57:00,
2013-03-11 11:02:00,43.5,35.1,30.22,SW,223,3.0,7.0,72,0.00,,,0.00,Wunderground v.1.15,2013-03-11 15:02:00,
2013-03-11 11:07:00,43.9,35.1,30.22,SSW,192,4.0,10.0,71,0.00,,,0.00,Wunderground v.1.15,2013-03-11 15:07:00,
2013-03-11 11:12:00,44.3,35.5,30.22,South,179,3.0,7.0,71,0.00,,,0.00,Wunderground v.1.15,2013-03-11 15:12:00,
2013-03-11 11:17:00,44.9,35.7,30.22,WSW,250,6.0,11.0,70,0.00,,,0.00,Wunderground v.1.15,2013-03-11 15:17:00,
2013-03-11 11:22:00,45.0,35.4,30.22,WSW,250,5.0,7.0,69,0.00,,,0.00,Wunderground v.1.15,2013-03-11 15:22:00,
2013-03-11 11:27:00,45.4,35.8,30.22,WSW,241,5.0,7.0,69,0.00,,,0.00,Wunderground v.1.15,2013-03-11 15:27:00,
2013-03-11 11:33:00,45.5,35.2,30.22,WSW,257,6.0,11.0,67,0.00,,,0.00,Wunderground v.1.15,2013-03-11 15:33:00,
2013-03-11 11:38:00,45.2,34.9,30.22,WSW,242,6.0,11.0,67,0.00,,,0.00,Wunderground v.1.15,2013-03-11 15:38:00,
2013-03-11 11:43:00,45.2,34.9,30.22,SW,234,4.0,7.0,67,0.00,,,0.00,Wunderground v.1.15,2013-03-11 15:43:00,
2013-03-11 11:48:00,45.5,35.5,30.22,WSW,246,4.0,9.0,68,0.00,,,0.00,Wunderground v.1.15,2013-03-11 15:48:00,
2013-03-11 11:53:00,46.2,35.8,30.21,SW,222,8.0,9.0,67,0.00,,,0.00,Wunderground v.1.15,2013-03-11 15:53:00,
2013-03-11 11:58:00,46.9,36.1,30.21,WSW,256,5.0,10.0,66,0.00,,,0.00,Wunderground v.1.15,2013-03-11 15:58:00,
2013-03-11 12:03:00,47.1,35.9,30.21,SW,224,4.0,6.0,65,0.00,,,0.00,Wunderground v.1.15,2013-03-11 16:03:00,
2013-03-11 12:08:00,47.3,35.7,30.21,WNW,284,1.0,8.0,64,0.00,,,0.00,Wunderground v.1.15,2013-03-11 16:08:00,
2013-03-11 12:13:00,47.5,35.9,30.21,West,273,7.0,10.0,64,0.00,,,0.00,Wunderground v.1.15,2013-03-11 16:13:00,
2013-03-11 12:18:00,47.8,35.8,30.21,WSW,249,3.0,10.0,63,0.00,,,0.00,Wunderground v.1.15,2013-03-11 16:18:00,
2013-03-11 12:23:00,47.9,36.3,30.21,SSW,203,2.0,10.0,64,0.00,,,0.00,Wunderground v.1.15,2013-03-11 16:23:00,
2013-03-11 12:28:00,48.5,36.5,30.21,SW,219,2.0,10.0,63,0.00,,,0.00,Wunderground v.1.15,2013-03-11 16:28:00,
2013-03-11 12:33:00,48.8,36.8,30.20,SSW,210,7.0,8.0,63,0.00,,,0.00,Wunderground v.1.15,2013-03-11 16:33:00,
2013-03-11 12:38:00,49.2,36.3,30.20,South,184,7.0,10.0,61,0.00,,,0.00,Wunderground v.1.15,2013-03-11 16:38:00,
2013-03-11 12:43:00,49.4,36.5,30.20,SW,224,6.0,9.0,61,0.00,,,0.00,Wunderground v.1.15,2013-03-11 16:43:00,
2013-03-11 12:48:00,49.5,36.2,30.20,WSW,242,3.0,9.0,60,0.00,,,0.00,Wunderground v.1.15,2013-03-11 16:48:00,
2013-03-11 12:53:00,49.7,35.9,30.20,WSW,245,6.0,12.0,59,0.00,,,0.00,Wunderground v.1.15,2013-03-11 16:53:00,
2013-03-11 12:58:00,49.7,35.5,30.20,WSW,240,3.0,12.0,58,0.00,,,0.00,Wunderground v.1.15,2013-03-11 16:58:00,
2013-03-11 13:03:00,49.5,36.2,30.20,SW,219,5.0,10.0,60,0.00,,,0.00,Wunderground v.1.15,2013-03-11 17:03:00,
2013-03-11 13:08:00,49.4,35.7,30.20,WSW,250,5.0,10.0,59,0.00,,,0.00,Wunderground v.1.15,2013-03-11 17:08:00,
2013-03-11 13:13:00,49.4,35.7,30.20,SW,228,3.0,7.0,59,0.00,,,0.00,Wunderground v.1.15,2013-03-11 17:13:00,
2013-03-11 13:18:00,49.5,36.2,30.20,SW,227,5.0,7.0,60,0.00,,,0.00,Wunderground v.1.15,2013-03-11 17:18:00,
2013-03-11 13:23:00,49.4,36.1,30.20,SW,223,6.0,9.0,60,0.00,,,0.00,Wunderground v.1.15,2013-03-11 17:23:00,
2013-03-11 13:28:00,49.6,36.3,30.19,South,179,4.0,9.0,60,0.00,,,0.00,Wunderground v.1.15,2013-03-11 17:28:00,
2013-03-11 13:33:00,50.0,37.1,30.19,SW,225,7.0,8.0,61,0.00,,,0.00,Wunderground v.1.15,2013-03-11 17:33:00,
2013-03-11 13:38:00,50.3,36.9,30.19,SSE,155,6.0,8.0,60,0.00,,,0.00,Wunderground v.1.15,2013-03-11 17:38:00,
2013-03-11 13:43:00,50.6,37.2,30.19,SE,144,7.0,9.0,60,0.00,,,0.00,Wunderground v.1.15,2013-03-11 17:43:00,
2013-03-11 13:49:00,50.9,37.9,30.19,SSE,159,2.0,10.0,61,0.00,,,0.00,Wunderground v.1.15,2013-03-11 17:49:00,
2013-03-11 13:54:00,51.2,37.8,30.18,South,186,1.0,11.0,60,0.00,,,0.00,Wunderground v.1.15,2013-03-11 17:54:00,
2013-03-11 13:59:00,51.3,37.9,30.18,SSW,194,9.0,11.0,60,0.00,,,0.00,Wunderground v.1.15,2013-03-11 17:59:00,
2013-03-11 14:04:00,51.4,37.5,30.18,SSW,208,1.0,9.0,59,0.00,,,0.00,Wunderground v.1.15,2013-03-11 18:04:00,
2013-03-11 14:09:00,51.5,38.1,30.17,South,178,4.0,9.0,60,0.00,,,0.00,Wunderground v.1.15,2013-03-11 18:09:00,
2013-03-11 14:14:00,51.6,37.7,30.17,South,173,5.0,11.0,59,0.00,,,0.00,Wunderground v.1.15,2013-03-11 18:14:00,
2013-03-11 14:19:00,51.7,37.8,30.17,South,188,8.0,11.0,59,0.00,,,0.00,Wunderground v.1.15,2013-03-11 18:19:00,
2013-03-11 14:24:00,51.8,37.5,30.17,WSW,252,4.0,8.0,58,0.00,,,0.00,Wunderground v.1.15,2013-03-11 18:24:00,
2013-03-11 14:29:00,51.7,37.8,30.16,SSE,168,7.0,9.0,59,0.00,,,0.00,Wunderground v.1.15,2013-03-11 18:29:00,
2013-03-11 14:34:00,51.8,37.9,30.16,SE,141,6.0,8.0,59,0.00,,,0.00,Wunderground v.1.15,2013-03-11 18:34:00,
2013-03-11 14:39:00,52.0,38.1,30.16,South,173,3.0,9.0,59,0.00,,,0.00,Wunderground v.1.15,2013-03-11 18:39:00,
2013-03-11 14:44:00,52.2,39.1,30.16,SW,221,6.0,12.0,61,0.00,,,0.00,Wunderground v.1.15,2013-03-11 18:44:00,
2013-03-11 14:49:00,52.6,38.7,30.16,South,184,5.0,12.0,59,0.00,,,0.00,Wunderground v.1.15,2013-03-11 18:49:00,
2013-03-11 14:54:00,53.0,39.9,30.16,SSE,149,4.0,12.0,61,0.00,,,0.00,Wunderground v.1.15,2013-03-11 18:54:00,
2013-03-11 14:59:00,53.4,39.4,30.16,South,171,2.0,12.0,59,0.00,,,0.00,Wunderground v.1.15,2013-03-11 18:59:00,
2013-03-11 15:04:00,53.7,39.3,30.16,South,186,2.0,12.0,58,0.00,,,0.00,Wunderground v.1.15,2013-03-11 19:04:00,
2013-03-11 15:10:00,53.9,39.5,30.16,SW,217,8.0,8.0,58,0.00,,,0.00,Wunderground v.1.15,2013-03-11 19:10:00,
2013-03-11 15:15:00,53.9,39.9,30.16,South,176,2.0,13.0,59,0.00,,,0.00,Wunderground v.1.15,2013-03-11 19:15:00,
2013-03-11 15:20:00,54.1,39.6,30.15,SSW,209,7.0,7.0,58,0.00,,,0.00,Wunderground v.1.15,2013-03-11 19:20:00,
2013-03-11 15:25:00,54.1,39.6,30.15,SSE,165,4.0,9.0,58,0.00,,,0.00,Wunderground v.1.15,2013-03-11 19:25:00,
2013-03-11 15:30:00,54.1,39.2,30.15,North,360,11.0,11.0,57,0.00,,,0.00,Wunderground v.1.15,2013-03-11 19:30:00,
2013-03-11 15:35:00,53.9,39.0,30.15,South,181,9.0,11.0,57,0.00,,,0.00,Wunderground v.1.15,2013-03-11 19:35:00,
2013-03-11 15:40:00,53.6,39.2,30.15,SE,144,7.0,7.0,58,0.00,,,0.00,Wunderground v.1.15,2013-03-11 19:40:00,
2013-03-11 15:45:00,53.4,39.0,30.15,SSW,198,6.0,14.0,58,0.00,,,0.00,Wunderground v.1.15,2013-03-11 19:45:00,
2013-03-11 15:50:00,53.1,39.1,30.15,SW,217,10.0,10.0,59,0.00,,,0.00,Wunderground v.1.15,2013-03-11 19:50:00,
2013-03-11 15:55:00,52.9,39.4,30.15,South,187,4.0,12.0,60,0.00,,,0.00,Wunderground v.1.15,2013-03-11 19:55:00,
2013-03-11 16:00:00,53.1,39.6,30.15,South,174,7.0,7.0,60,0.00,,,0.00,Wunderground v.1.15,2013-03-11 20:00:00,
2013-03-11 16:05:00,53.3,39.3,30.15,South,186,6.0,12.0,59,0.00,,,0.00,Wunderground v.1.15,2013-03-11 20:05:00,
2013-03-11 16:10:00,53.3,39.8,30.15,South,171,3.0,6.0,60,0.00,,,0.00,Wunderground v.1.15,2013-03-11 20:10:00,
2013-03-11 16:15:00,53.3,39.3,30.15,WSW,244,4.0,8.0,59,0.00,,,0.00,Wunderground v.1.15,2013-03-11 20:15:00,
2013-03-11 16:20:00,53.4,39.9,30.14,South,187,6.0,7.0,60,0.00,,,0.00,Wunderground v.1.15,2013-03-11 20:20:00,
2013-03-11 16:25:00,53.5,39.5,30.14,SSW,206,5.0,11.0,59,0.00,,,0.00,Wunderground v.1.15,2013-03-11 20:25:00,
2013-03-11 16:30:00,53.5,39.5,30.14,SSE,166,4.0,6.0,59,0.00,,,0.00,Wunderground v.1.15,2013-03-11 20:30:00,
2013-03-11 16:35:00,53.5,39.5,30.14,SSW,198,6.0,10.0,59,0.00,,,0.00,Wunderground v.1.15,2013-03-11 20:35:00,
2013-03-11 16:40:00,53.2,38.8,30.13,South,189,9.0,9.0,58,0.00,,,0.00,Wunderground v.1.15,2013-03-11 20:40:00,
2013-03-11 16:45:00,52.7,38.8,30.14,SSW,206,4.0,12.0,59,0.00,,,0.00,Wunderground v.1.15,2013-03-11 20:45:00,
2013-03-11 16:50:00,52.2,38.7,30.13,SSW,196,9.0,9.0,60,0.00,,,0.00,Wunderground v.1.15,2013-03-11 20:50:00,
2013-03-11 16:55:00,51.9,38.9,30.13,SSW,199,7.0,11.0,61,0.00,,,0.00,Wunderground v.1.15,2013-03-11 20:55:00,
2013-03-11 17:00:00,51.7,39.1,30.14,SSW,211,13.0,13.0,62,0.00,,,0.00,Wunderground v.1.15,2013-03-11 21:00:00,
2013-03-11 17:05:00,51.5,38.9,30.14,SW,234,9.0,13.0,62,0.00,,,0.00,Wunderground v.1.15,2013-03-11 21:05:00,
2013-03-11 17:10:00,51.2,39.0,30.13,SW,219,4.0,8.0,63,0.00,,,0.00,Wunderground v.1.15,2013-03-11 21:10:00,
2013-03-11 17:15:00,51.0,38.8,30.13,SSE,161,1.0,9.0,63,0.00,,,0.00,Wunderground v.1.15,2013-03-11 21:15:00,
2013-03-11 17:20:00,51.0,38.8,30.14,SSW,196,7.0,7.0,63,0.00,,,0.00,Wunderground v.1.15,2013-03-11 21:20:00,
2013-03-11 17:25:00,50.8,38.7,30.13,South,169,4.0,10.0,63,0.00,,,0.00,Wunderground v.1.15,2013-03-11 21:25:00,
2013-03-11 17:30:00,50.6,38.9,30.13,South,188,5.0,5.0,64,0.00,,,0.00,Wunderground v.1.15,2013-03-11 21:30:00,
2013-03-11 17:35:00,50.5,38.8,30.13,South,189,4.0,11.0,64,0.00,,,0.00,Wunderground v.1.15,2013-03-11 21:35:00,
2013-03-11 17:40:00,50.5,39.2,30.13,South,191,11.0,11.0,65,0.00,,,0.00,Wunderground v.1.15,2013-03-11 21:40:00,
2013-03-11 17:45:00,50.3,38.6,30.13,SW,219,8.0,11.0,64,0.00,,,0.00,Wunderground v.1.15,2013-03-11 21:45:00,
2013-03-11 17:50:00,49.9,38.6,30.13,SW,223,4.0,7.0,65,0.00,,,0.00,Wunderground v.1.15,2013-03-11 21:50:00,
2013-03-11 17:55:00,49.8,38.5,30.14,South,180,4.0,9.0,65,0.00,,,0.00,Wunderground v.1.15,2013-03-11 21:55:00,
2013-03-11 18:00:00,49.6,38.7,30.14,South,178,4.0,12.0,66,0.00,,,0.00,Wunderground v.1.15,2013-03-11 22:00:00,
2013-03-11 18:06:00,49.4,38.5,30.14,South,176,4.0,12.0,66,0.00,,,0.00,Wunderground v.1.15,2013-03-11 22:06:00,
2013-03-11 18:11:00,49.2,38.3,30.14,South,190,8.0,9.0,66,0.00,,,0.00,Wunderground v.1.15,2013-03-11 22:11:00,
2013-03-11 18:16:00,48.8,38.3,30.14,SSW,210,5.0,11.0,67,0.00,,,0.00,Wunderground v.1.15,2013-03-11 22:16:00,
2013-03-11 18:21:00,48.3,37.8,30.14,South,173,3.0,7.0,67,0.00,,,0.00,Wunderground v.1.15,2013-03-11 22:21:00,
2013-03-11 18:26:00,48.1,38.0,30.14,SW,232,7.0,17.0,68,0.00,,,0.00,Wunderground v.1.15,2013-03-11 22:26:00,
2013-03-11 18:31:00,47.9,38.2,30.14,SSW,196,7.0,13.0,69,0.00,,,0.00,Wunderground v.1.15,2013-03-11 22:31:00,
2013-03-11 18:36:00,47.6,37.9,30.14,South,183,8.0,17.0,69,0.00,,,0.00,Wunderground v.1.15,2013-03-11 22:36:00,
2013-03-11 18:41:00,47.4,38.1,30.14,SSW,200,7.0,12.0,70,0.00,,,0.00,Wunderground v.1.15,2013-03-11 22:41:00,
2013-03-11 18:46:00,47.0,37.7,30.14,SSW,209,12.0,12.0,70,0.00,,,0.00,Wunderground v.1.15,2013-03-11 22:46:00,
2013-03-11 18:52:00,46.7,37.8,30.14,South,186,8.0,12.0,71,0.00,,,0.00,Wunderground v.1.15,2013-03-11 22:52:00,
2013-03-11 18:57:00,46.5,38.0,30.14,SSW,210,6.0,16.0,72,0.00,,,0.00,Wunderground v.1.15,2013-03-11 22:57:00,
2013-03-11 19:02:00,46.2,37.7,30.14,SW,218,3.0,8.0,72,0.00,,,0.00,Wunderground v.1.15,2013-03-11 23:02:00,
2013-03-11 19:07:00,46.0,37.8,30.14,South,178,7.0,12.0,73,0.00,,,0.00,Wunderground v.1.15,2013-03-11 23:07:00,
2013-03-11 19:12:00,45.9,37.7,30.14,SSW,200,1.0,12.0,73,0.00,,,0.00,Wunderground v.1.15,2013-03-11 23:12:00,
2013-03-11 19:17:00,45.7,37.5,30.14,SSW,210,4.0,12.0,73,0.00,,,0.00,Wunderground v.1.15,2013-03-11 23:17:00,
2013-03-11 19:22:00,45.5,37.7,30.14,South,187,5.0,7.0,74,0.00,,,0.00,Wunderground v.1.15,2013-03-11 23:22:00,
2013-03-11 19:27:00,45.3,37.5,30.14,SSW,202,7.0,13.0,74,0.00,,,0.00,Wunderground v.1.15,2013-03-11 23:27:00,
2013-03-11 19:32:00,45.2,37.4,30.14,South,169,3.0,7.0,74,0.00,,,0.00,Wunderground v.1.15,2013-03-11 23:32:00,
2013-03-11 19:37:00,45.1,37.6,30.14,SW,215,6.0,11.0,75,0.00,,,0.00,Wunderground v.1.15,2013-03-11 23:37:00,
2013-03-11 19:43:00,45.0,37.6,30.14,SSW,199,4.0,10.0,75,0.00,,,0.00,Wunderground v.1.15,2013-03-11 23:43:00,
2013-03-11 19:48:00,44.9,37.8,30.14,SSW,212,7.0,14.0,76,0.00,,,0.00,Wunderground v.1.15,2013-03-11 23:48:00,
2013-03-11 19:53:00,44.9,37.8,30.15,SSW,195,7.0,11.0,76,0.00,,,0.00,Wunderground v.1.15,2013-03-11 23:53:00,
2013-03-11 19:58:00,44.9,37.8,30.15,SW,223,5.0,11.0,76,0.00,,,0.00,Wunderground v.1.15,2013-03-11 23:58:00,
2013-03-11 20:03:00,44.8,37.7,30.15,SSW,194,7.0,12.0,76,0.00,,,0.00,Wunderground v.1.15,2013-03-12 00:03:00,
2013-03-11 20:08:00,44.7,37.9,30.15,SSW,207,8.0,15.0,77,0.00,,,0.00,Wunderground v.1.15,2013-03-12 00:08:00,
2013-03-11 20:13:00,44.5,37.7,30.15,South,185,5.0,9.0,77,0.00,,,0.00,Wunderground v.1.15,2013-03-12 00:13:00,
2013-03-11 20:18:00,44.4,37.6,30.15,SSE,167,5.0,12.0,77,0.00,,,0.00,Wunderground v.1.15,2013-03-12 00:18:00,
2013-03-11 20:23:00,44.3,37.5,30.15,SSE,167,2.0,7.0,77,0.00,,,0.00,Wunderground v.1.15,2013-03-12 00:23:00,
2013-03-11 20:28:00,44.2,37.8,30.14,South,183,5.0,8.0,78,0.00,,,0.00,Wunderground v.1.15,2013-03-12 00:28:00,
2013-03-11 20:33:00,44.2,37.8,30.14,South,169,2.0,6.0,78,0.00,,,0.00,Wunderground v.1.15,2013-03-12 00:33:00,
2013-03-11 20:38:00,44.2,37.8,30.14,SSW,200,8.0,12.0,78,0.00,,,0.00,Wunderground v.1.15,2013-03-12 00:38:00,
2013-03-11 20:43:00,44.1,37.7,30.14,SW,227,5.0,7.0,78,0.00,,,0.00,Wunderground v.1.15,2013-03-12 00:43:00,
2013-03-11 20:48:00,43.9,37.8,30.14,South,176,3.0,10.0,79,0.00,,,0.00,Wunderground v.1.15,2013-03-12 00:48:00,
2013-03-11 20:53:00,43.8,37.7,30.15,SSW,196,1.0,5.0,79,0.00,,,0.00,Wunderground v.1.15,2013-03-12 00:53:00,
2013-03-11 20:58:00,43.7,37.6,30.14,SSE,168,3.0,11.0,79,0.00,,,0.00,Wunderground v.1.15,2013-03-12 00:58:00,
2013-03-11 21:03:00,43.6,37.5,30.14,SW,232,3.0,9.0,79,0.00,,,0.00,Wunderground v.1.15,2013-03-12 01:03:00,
2013-03-11 21:08:00,43.6,37.8,30.15,South,190,2.0,10.0,80,0.00,,,0.00,Wunderground v.1.15,2013-03-12 01:08:00,
2013-03-11 21:13:00,43.6,37.8,30.15,South,173,6.0,10.0,80,0.00,,,0.00,Wunderground v.1.15,2013-03-12 01:13:00,
2013-03-11 21:18:00,43.4,37.6,30.14,SSW,192,5.0,10.0,80,0.00,,,0.00,Wunderground v.1.15,2013-03-12 01:18:00,
2013-03-11 21:23:00,43.4,37.6,30.14,South,189,2.0,11.0,80,0.00,,,0.00,Wunderground v.1.15,2013-03-12 01:23:00,
2013-03-11 21:28:00,43.3,37.5,30.14,SW,215,4.0,11.0,80,0.00,,,0.00,Wunderground v.1.15,2013-03-12 01:28:00,
2013-03-11 21:33:00,43.2,37.4,30.14,South,191,8.0,8.0,80,0.00,,,0.00,Wunderground v.1.15,2013-03-12 01:33:00,
2013-03-11 21:38:00,43.1,37.7,30.14,South,184,4.0,8.0,81,0.00,,,0.00,Wunderground v.1.15,2013-03-12 01:38:00,
2013-03-11 21:43:00,43.1,37.7,30.13,SW,221,4.0,7.0,81,0.00,,,0.00,Wunderground v.1.15,2013-03-12 01:43:00,
2013-03-11 21:48:00,43.2,37.8,30.13,South,180,5.0,9.0,81,0.00,,,0.00,Wunderground v.1.15,2013-03-12 01:48:00,
2013-03-11 21:53:00,43.2,37.8,30.13,SW,214,9.0,9.0,81,0.00,,,0.00,Wunderground v.1.15,2013-03-12 01:53:00,
2013-03-11 21:58:00,43.1,37.7,30.13,SSW,208,4.0,11.0,81,0.00,,,0.00,Wunderground v.1.15,2013-03-12 01:58:00,
2013-03-11 22:03:00,43.0,37.6,30.13,South,178,2.0,8.0,81,0.00,,,0.00,Wunderground v.1.15,2013-03-12 02:03:00,
2013-03-11 22:08:00,43.0,37.6,30.13,SSW,200,1.0,11.0,81,0.00,,,0.00,Wunderground v.1.15,2013-03-12 02:08:00,
2013-03-11 22:13:00,42.9,37.8,30.13,SW,217,5.0,7.0,82,0.00,,,0.00,Wunderground v.1.15,2013-03-12 02:13:00,
2013-03-11 22:18:00,42.9,37.8,30.13,South,189,11.0,11.0,82,0.00,,,0.00,Wunderground v.1.15,2013-03-12 02:18:00,
2013-03-11 22:23:00,43.0,37.9,30.13,SW,222,4.0,7.0,82,0.00,,,0.00,Wunderground v.1.15,2013-03-12 02:23:00,
2013-03-11 22:28:00,42.9,37.8,30.13,SSW,213,5.0,9.0,82,0.00,,,0.00,Wunderground v.1.15,2013-03-12 02:28:00,
2013-03-11 22:33:00,42.9,37.8,30.13,South,184,7.0,10.0,82,0.00,,,0.00,Wunderground v.1.15,2013-03-12 02:33:00,
2013-03-11 22:38:00,42.9,37.8,30.13,South,189,4.0,10.0,82,0.00,,,0.00,Wunderground v.1.15,2013-03-12 02:38:00,
2013-03-11 22:43:00,42.9,37.8,30.13,SSW,193,2.0,7.0,82,0.00,,,0.00,Wunderground v.1.15,2013-03-12 02:43:00,
2013-03-11 22:48:00,42.9,37.8,30.12,SSW,198,2.0,9.0,82,0.00,,,0.00,Wunderground v.1.15,2013-03-12 02:48:00,
2013-03-11 22:53:00,42.8,37.7,30.13,South,174,2.0,5.0,82,0.00,,,0.00,Wunderground v.1.15,2013-03-12 02:53:00,
2013-03-11 22:58:00,42.8,37.7,30.12,South,191,3.0,8.0,82,0.00,,,0.00,Wunderground v.1.15,2013-03-12 02:58:00,
2013-03-11 23:03:00,42.7,37.6,30.12,SSW,211,5.0,7.0,82,0.00,,,0.00,Wunderground v.1.15,2013-03-12 03:03:00,
2013-03-11 23:08:00,42.6,37.5,30.12,SSE,163,4.0,7.0,82,0.00,,,0.00,Wunderground v.1.15,2013-03-12 03:08:00,
2013-03-11 23:13:00,42.6,37.5,30.12,SSW,192,6.0,7.0,82,0.00,,,0.00,Wunderground v.1.15,2013-03-12 03:13:00,
2013-03-11 23:18:00,42.5,37.4,30.12,SW,216,2.0,7.0,82,0.00,,,0.00,Wunderground v.1.15,2013-03-12 03:18:00,
2013-03-11 23:23:00,42.4,37.3,30.12,SW,229,7.0,10.0,82,0.00,,,0.00,Wunderground v.1.15,2013-03-12 03:23:00,
2013-03-11 23:29:00,42.4,37.3,30.13,SSW,200,4.0,10.0,82,0.00,,,0.00,Wunderground v.1.15,2013-03-12 03:29:00,
2013-03-11 23:34:00,42.3,37.5,30.13,SW,225,5.0,7.0,83,0.00,,,0.00,Wunderground v.1.15,2013-03-12 03:34:00,
2013-03-11 23:39:00,42.3,37.5,30.13,SSW,200,0.0,10.0,83,0.00,,,0.00,Wunderground v.1.15,2013-03-12 03:39:00,
2013-03-11 23:44:00,42.2,37.4,30.13,South,180,3.0,7.0,83,0.00,,,0.00,Wunderground v.1.15,2013-03-12 03:44:00,
2013-03-11 23:49:00,42.2,37.4,30.13,South,180,3.0,7.0,83,0.00,,,0.00,Wunderground v.1.15,2013-03-12 03:49:00,
2013-03-11 23:54:00,42.1,37.3,30.13,SSW,213,2.0,7.0,83,0.00,,,0.00,Wunderground v.1.15,2013-03-12 03:54:00,
2013-03-11 23:59:00,42.0,37.2,30.14,SSW,194,2.0,7.0,83,0.00,,,0.00,Wunderground v.1.15,2013-03-12 03:59:00,